Location: Unspecified
(0.0000°N, 0.0000°E)
Time: 23:14:15
(UTC+00:00)

Vanguard 2 - Pass Details

Date: 03 October 2020
Orbit: 554 x 2937 km, 32.9° (Epoch: 28 October)

Event Time Altitude Azimuth Distance (km) Brightness Sun altitude
Rises 10:18:19 0° 331° (NNW) 2,704 10.2 67.0°
Reaches altitude 10° 10:20:57 10° 351° (N) 1,847 9.6 67.6°
Maximum altitude 10:23:54 19° 38° (NE) 1,473 9.4 68.3°
Drops below altitude 10° 10:27:19 10° 84° (E) 2,195 10.3 69.2°
Sets 10:30:49 0° 101° (E) 3,437 11.2 70.0°
